Location: Pittman
(37.9557°N, 80.9209°W)
Time: 01:26:03
(UTC+00:00)

Envisat - Pass Details

Date: 26 April 2026
Orbit: 761 x 762 km, 98.4° (Epoch: 19 May)

Event Time Altitude Azimuth Distance (km) Brightness Sun altitude
Rises 09:21:30 0° 353° (N) 3,230 6.6 -13.8°
Reaches altitude 10° 09:24:40 10° 332° (NNW) 2,299 5.5 -13.3°
Maximum altitude 09:27:36 16° 297° (WNW) 1,926 4.8 -12.8°
Enters shadow 09:29:30 13° 272° (W) 2,087 4.7 -12.4°
